PLATFORM,DATE (YYYY/MM/DD HH:MI:SS),LATITUDE (degree_north),LONGITUDE (degree_east),DEPH LEVEL1(meter),TEMP LEVEL1(degree_Celsius),DEPH LEVEL2(meter),NSCT LEVEL2(meter/second),EWCT LEVEL2(meter/second),QC,SVP_RCBN_Number,SVP_GNRL_ImmPercent,SVP_GNRL_BattVolt
61938,2012/03/07 10:00:00,43.1050,5.8800,0.5,-5,50,,,014474799,1,0,0
61938,2012/03/07 10:33:05,43.1065,5.8841,0.5,16.52,50,0.084026,0.167682,014474700,1,88,10.6
61938,2012/03/07 11:03:05,43.1065,5.8841,0.5,16.52,50,0,0,014474700,1,88,11
61938,2012/03/07 11:30:04,43.1065,5.8841,0.5,29.24,50,0,0,014474700,4,73,11
61938,2012/03/07 12:00:09,43.1065,5.8841,0.5,35.24,50,0,0,014474700,4,46,10.8
61938,2012/03/07 12:30:25,43.1066,5.8842,0.5,35.88,50,0.006123,0.00447,014474700,5,46,10.8
61938,2012/03/07 13:00:15,43.1064,5.8841,0.5,35.88,50,-0.012424,-0.004535,014474700,5,9,11
61938,2012/03/07 13:30:07,43.1064,5.8844,0.5,35.88,50,0,0.013591,014474700,1,9,11
61938,2012/03/07 14:00:04,43.1062,5.8848,0.5,35.88,50,-0.012376,0.018071,014474700,1,6,11
61938,2012/03/07 14:30:12,43.1064,5.8842,0.5,35.08,50,0.0123,-0.026941,014474700,3,6,11
61938,2012/03/07 15:00:21,43.1065,5.8842,0.5,32.92,50,0.006147,0,014474700,3,9,11
61938,2012/03/07 15:30:09,43.1064,5.8840,0.5,30.04,50,-0.006219,-0.009081,014474700,1,9,11
61938,2012/03/07 16:01:21,43.1064,5.8844,0.5,27.72,50,0,0.017347,014474700,1,9,11
61938,2012/03/07 16:30:34,43.1066,5.8840,0.5,25.24,50,0.012686,-0.018524,014474700,1,9,11
61938,2012/03/07 17:00:03,43.1063,5.8838,0.5,22.92,50,-0.018857,-0.009178,014474700,1,20,11
61938,2012/03/07 17:30:34,43.1063,5.8837,0.5,19.24,50,0,-0.004434,014474700,1,20,11
61938,2012/03/07 18:00:15,43.1065,5.8842,0.5,16.52,50,0.012487,0.022791,014474700,1,19,11
61938,2012/03/07 18:30:52,43.1064,5.8841,0.5,14.84,50,-0.006053,-0.004419,014474700,1,19,11
61938,2012/03/07 19:30:17,43.1064,5.8842,0.5,12.92,50,0,0.002277,014474700,1,12,11
61938,2012/03/07 20:00:25,43.1064,5.8841,0.5,12.28,50,0,-0.00449,014474700,1,9,11
61938,2012/03/07 21:00:04,43.1073,5.8852,0.5,11.56,50,0.027962,0.024951,014474700,3,7,10.8
61938,2012/03/07 21:30:34,43.1066,5.8841,0.5,11.48,50,-0.042534,-0.048797,014474700,3,7,10.8
61938,2012/03/07 22:00:03,43.1065,5.8841,0.5,11.32,50,-0.006286,0,014474700,1,6,11
61938,2012/03/07 22:30:06,43.1066,5.8841,0.5,11.24,50,0.006167,0,014474700,1,6,11
61938,2012/03/07 23:00:27,43.1064,5.8842,0.5,11.08,50,-0.012213,0.004458,014474700,1,6,11
61938,2012/03/07 23:30:20,43.1065,5.8841,0.5,10.84,50,0.006202,-0.004528,014474700,1,6,11
61938,2012/03/08 00:00:05,43.1068,5.8839,0.5,9.96,50,0.018688,-0.009096,014474700,1,6,11
61938,2012/03/08 00:30:35,43.1065,5.8840,0.5,9.8,50,-0.018229,0.004436,014474700,1,6,11
61938,2012/03/08 01:00:13,43.1064,5.8841,0.5,9.48,50,-0.006254,0.004566,014474700,1,7,11
61938,2012/03/08 01:30:03,43.1064,5.8841,0.5,9.08,50,0,0,014474700,1,7,11
61938,2012/03/08 02:00:04,43.1064,5.8841,0.5,9,50,0,0,014474700,3,6,11
61938,2012/03/08 02:30:26,43.1062,5.8841,0.5,9.24,50,-0.012206,0,014474700,3,6,11
61938,2012/03/08 03:00:28,43.1062,5.8842,0.5,9.48,50,0,0.004505,014474700,1,6,11
61938,2012/03/08 03:30:32,43.1063,5.8852,0.5,9.48,50,0.006164,0.045001,014474700,1,6,11
61938,2012/03/08 04:00:04,43.1067,5.8837,0.5,9.4,50,0.0251,-0.06872,014474700,1,6,11
61938,2012/03/08 04:30:15,43.1063,5.8845,0.5,9.24,50,-0.02456,0.035862,014474700,1,6,11
61938,2012/03/08 05:30:04,43.1055,5.8827,0.5,8.92,50,-0.024786,-0.040716,014474700,1,6,11
61938,2012/03/08 06:00:34,43.1065,5.8840,0.5,8.36,50,0.060762,0.057671,014474700,1,6,11
61938,2012/03/08 06:30:06,43.1064,5.8844,0.5,7.96,50,-0.006275,0.018325,014474700,1,6,11
61938,2012/03/08 07:00:24,43.1064,5.8843,0.5,7.96,50,0,-0.004465,014474700,1,6,11
61938,2012/03/08 07:30:08,43.1064,5.8844,0.5,8.28,50,0,0.004551,014474700,1,6,11
61938,2012/03/08 08:00:05,43.1062,5.8847,0.5,9,50,-0.012376,0.013553,014474700,1,12,11
61938,2012/03/08 08:30:39,43.1066,5.8845,0.5,10.04,50,0.024252,-0.008853,014474700,1,12,11
61938,2012/03/14 06:00:00,43.5768,7.5180,0.5,-5,50,0.102642,0.259352,014474700,6,0,0
61938,2012/03/14 06:30:00,43.5785,7.5237,0.5,-5,50,0.103664,0.255309,014474700,1,0,0
61938,2012/03/14 06:33:42,43.5757,7.5489,0.5,13.56,50,-1.38242,9.12593,014471700,6,0,10.8
61938,2012/03/14 07:03:42,43.5757,7.5489,0.5,14.2,50,0,0,011174700,6,23,10.8
61938,2012/03/14 07:30:04,43.5917,7.4651,0.5,15.88,50,1.1246,-4.2666,014474700,5,23,10.8
61938,2012/03/14 08:00:05,43.5944,7.4479,0.5,13.56,50,0.1667,-0.769115,011171700,5,17,11
61938,2012/03/14 08:30:15,43.5942,7.4478,0.5,13.56,50,-0.012287,-0.004449,011171700,4,17,11
61938,2012/03/14 09:00:03,43.5942,7.4482,0.5,13.64,50,0,0.018016,011171700,4,6,11
61938,2012/03/14 09:30:03,43.5943,7.4493,0.5,13.72,50,0.006177,0.049214,011171700,4,6,11
61938,2012/03/14 10:00:09,43.5949,7.4509,0.5,13.88,50,0.036942,0.071346,011171700,1,7,11
61938,2012/03/14 10:30:04,43.5961,7.4530,0.5,13.96,50,0.074336,0.094214,011171700,4,7,11
61938,2012/03/14 11:00:04,43.5979,7.4556,0.5,13.96,50,0.111195,0.116319,011171700,4,6,11
61938,2012/03/14 11:30:24,43.6000,7.4585,0.5,14.12,50,0.128302,0.12831,011171700,4,6,11
61938,2012/03/14 12:00:04,43.6012,7.4612,0.5,14.12,50,0.074963,0.122142,011171700,3,6,11
61938,2012/03/14 12:30:34,43.6025,7.4640,0.5,14.2,50,0.078991,0.123203,011171700,1,6,11
61938,2012/03/14 13:00:03,43.6027,7.4666,0.5,14.28,50,0.012572,0.118346,011171700,4,14,11
61938,2012/03/14 13:30:03,43.6002,7.4687,0.5,14.2,50,-0.154437,0.093943,011171700,4,14,11
61938,2012/03/14 14:00:03,43.5980,7.4702,0.5,14.2,50,-0.135905,0.067105,011171700,3,14,11
61938,2012/03/14 14:30:07,43.5962,7.4716,0.5,14.28,50,-0.110948,0.062494,011171700,3,14,11
61938,2012/03/14 15:00:04,43.5948,7.4727,0.5,14.28,50,-0.086629,0.049295,011171700,3,17,11
61938,2012/03/14 15:30:06,43.5933,7.4743,0.5,14.36,50,-0.09256,0.071505,011171700,1,17,11
61938,2012/03/14 16:00:07,43.5923,7.4752,0.5,14.28,50,-0.061741,0.040245,011171700,1,17,11
61938,2012/03/14 16:30:34,43.5914,7.4762,0.5,14.2,50,-0.054776,0.044081,011171700,4,17,11
61938,2012/03/14 17:00:04,43.5906,7.4774,0.5,14.2,50,-0.050258,0.054601,011171700,4,17,11
61938,2012/03/14 17:30:03,43.5896,7.4785,0.5,14.2,50,-0.061809,0.049245,011171700,1,17,11
61938,2012/03/14 18:00:06,43.5882,7.4791,0.5,14.12,50,-0.086341,0.026802,011171700,1,17,11
61938,2012/03/14 18:30:12,43.5873,7.4803,0.5,14.04,50,-0.055413,0.053515,011171700,3,17,11
61938,2012/03/14 19:00:05,43.5860,7.4813,0.5,14.04,50,-0.080621,0.04492,011171700,3,17,11
61938,2012/03/14 19:30:25,43.5845,7.4821,0.5,13.96,50,-0.091644,0.035404,011171700,4,17,11
61938,2012/03/14 20:00:05,43.5827,7.4829,0.5,13.88,50,-0.112444,0.036201,011171700,4,17,11
61938,2012/03/14 20:30:04,43.5806,7.4834,0.5,13.8,50,-0.1298,0.022387,011171700,4,17,11
61938,2012/03/14 21:01:54,43.5784,7.4836,0.5,13.72,50,-0.128078,0.008435,011171700,4,20,11
61938,2012/03/14 21:30:06,43.5762,7.4838,0.5,13.8,50,-0.14458,0.009522,011171700,3,20,11
61938,2012/03/14 22:00:59,43.5737,7.4837,0.5,13.8,50,-0.15002,-0.004347,011171700,1,20,11
61938,2012/03/14 22:30:04,43.5710,7.4833,0.5,13.72,50,-0.172049,-0.018467,011171700,1,20,11
61938,2012/03/14 23:00:13,43.5684,7.4825,0.5,13.64,50,-0.159816,-0.035628,011171700,1,19,11
61938,2012/03/14 23:31:32,43.5654,7.4811,0.5,13.64,50,-0.177533,-0.06003,011171700,3,19,11
61938,2012/03/15 00:00:03,43.5629,7.4797,0.5,13.64,50,-0.162471,-0.065927,011171700,3,20,11
61938,2012/03/15 00:30:15,43.5605,7.4770,0.5,13.56,50,-0.147278,-0.120063,011171700,1,20,10.6
61938,2012/03/15 01:00:03,43.5581,7.4749,0.5,13.56,50,-0.149255,-0.094639,011171700,3,17,11
61938,2012/03/15 01:30:19,43.5559,7.4726,0.5,13.64,50,-0.134708,-0.102058,011171700,3,17,11
61938,2012/03/15 02:00:34,43.5543,7.4700,0.5,13.64,50,-0.098023,-0.115438,011171700,4,20,11
61938,2012/03/15 02:30:08,43.5526,7.4675,0.5,13.72,50,-0.106557,-0.113566,011171700,4,20,11
61938,2012/03/15 03:00:35,43.5511,7.4650,0.5,13.72,50,-0.091293,-0.110275,011171700,4,17,11
61938,2012/03/15 03:30:04,43.5497,7.4626,0.5,13.64,50,-0.088001,-0.109337,011171700,4,17,11
61938,2012/03/15 04:00:05,43.5477,7.4602,0.5,13.64,50,-0.123481,-0.107397,011171700,3,20,11
61938,2012/03/15 04:30:04,43.5461,7.4571,0.5,13.64,50,-0.098895,-0.13888,011171700,1,20,11
61938,2012/03/15 05:00:03,43.5444,7.4544,0.5,13.64,50,-0.105076,-0.120963,011171700,1,19,11
61938,2012/03/15 05:30:06,43.5427,7.4517,0.5,13.64,50,-0.104843,-0.120698,011171700,1,19,11
61938,2012/03/15 06:00:34,43.5411,7.4484,0.5,13.64,50,-0.097326,-0.145507,011171700,1,19,11
61938,2012/03/15 06:30:15,43.5396,7.4456,0.5,13.56,50,-0.093651,-0.126722,011171700,1,19,11
61938,2012/03/15 07:01:34,43.5375,7.4425,0.5,13.56,50,-0.124273,-0.132986,011171700,1,20,11
61938,2012/03/15 07:30:03,43.5358,7.4394,0.5,13.56,50,-0.110609,-0.146219,011171700,1,20,11
61938,2012/03/15 08:00:05,43.5338,7.4356,0.5,13.56,50,-0.123413,-0.169991,011171700,1,22,11
61938,2012/03/15 08:30:14,43.5323,7.4324,0.5,13.56,50,-0.092201,-0.1426,011171700,1,22,11
61938,2012/03/15 09:00:21,43.5308,7.4286,0.5,13.56,50,-0.092303,-0.16953,011171700,1,19,11
61938,2012/03/15 09:30:07,43.5295,7.4249,0.5,13.56,50,-0.080937,-0.167013,011171700,1,19,11
61938,2012/03/15 10:00:34,43.5280,7.4213,0.5,13.56,50,-0.091293,-0.158856,011171700,1,20,11
61938,2012/03/15 10:30:03,43.5266,7.4179,0.5,13.64,50,-0.088001,-0.154954,011171700,1,20,11
61938,2012/03/15 11:00:34,43.5249,7.4138,0.5,13.64,50,-0.103239,-0.180533,011171700,1,20,11
61938,2012/03/15 11:30:34,43.5230,7.4097,0.5,13.64,50,-0.102958,-0.173192,011171700,1,20,11
61938,2012/03/15 12:00:03,43.5213,7.4055,0.5,13.64,50,-0.106858,-0.19143,011171700,1,17,11
61938,2012/03/15 12:30:13,43.5194,7.4010,0.5,13.64,50,-0.116724,-0.200463,011171700,5,17,11
61938,2012/03/15 13:00:13,43.5176,7.3968,0.5,13.64,50,-0.111195,-0.188144,011171700,5,20,10.9
61938,2012/03/15 13:30:07,43.5160,7.3922,0.5,13.72,50,-0.099171,-0.206758,011171700,4,20,10.9
61938,2012/03/15 14:00:03,43.5141,7.3876,0.5,13.72,50,-0.117634,-0.206533,011171700,3,17,11
61938,2012/03/15 14:30:58,43.5119,7.3829,0.5,13.72,50,-0.131875,-0.204318,011171700,1,17,11
61938,2012/03/15 15:00:15,43.5099,7.3782,0.5,13.72,50,-0.126574,-0.215722,011171700,1,17,11
61938,2012/03/15 15:30:04,43.5078,7.3733,0.5,13.72,50,-0.130525,-0.220887,011171700,1,17,11
61938,2012/03/15 16:00:09,43.5057,7.3680,0.5,13.72,50,-0.129368,-0.236808,011171700,1,20,11
61938,2012/03/15 16:30:34,43.5036,7.3627,0.5,13.64,50,-0.12795,-0.234221,011171700,1,20,11
61938,2012/03/15 17:00:03,43.5017,7.3574,0.5,13.64,50,-0.119429,-0.241644,011171700,1,17,11
61938,2012/03/15 17:30:04,43.5001,7.3517,0.5,13.64,50,-0.098785,-0.255271,011171700,4,17,11
61938,2012/03/15 18:00:16,43.4986,7.3461,0.5,13.64,50,-0.092049,-0.249277,011171700,4,17,11
61938,2012/03/15 18:30:15,43.4971,7.3405,0.5,13.64,50,-0.092714,-0.251084,011171700,1,17,11
61938,2012/03/15 19:00:04,43.4957,7.3341,0.5,13.64,50,-0.087017,-0.288564,011171700,3,20,11
61938,2012/03/15 19:30:04,43.4944,7.3279,0.5,13.64,50,-0.080307,-0.277845,011171700,3,20,11
61938,2012/03/15 20:00:04,43.4938,7.3213,0.5,13.64,50,-0.037065,-0.295775,011171700,1,20,11
61938,2012/03/15 20:31:35,43.4927,7.3153,0.5,13.64,50,-0.064682,-0.25595,011171700,1,20,11
61938,2012/03/15 21:00:03,43.4921,7.3093,0.5,13.64,50,-0.039061,-0.283377,011171700,1,22,10.9
61938,2012/03/15 21:30:05,43.4915,7.3033,0.5,13.64,50,-0.038015,-0.27579,011171700,1,22,10.9
61938,2012/03/15 22:00:06,43.4911,7.2975,0.5,13.64,50,-0.024696,-0.259791,011171700,1,20,10.9
61938,2012/03/15 22:30:13,43.4908,7.2916,0.5,13.64,50,-0.018461,-0.263394,011171700,1,20,10.9
61938,2012/03/15 23:01:23,43.4907,7.2856,0.5,13.64,50,-0.005946,-0.258835,011171700,1,22,11
61938,2012/03/15 23:30:03,43.4907,7.2803,0.5,13.64,50,0,-0.248577,011171700,1,22,11
61938,2012/03/16 00:01:01,43.4907,7.2748,0.5,13.64,50,0,-0.238798,011171700,1,20,11
61938,2012/03/16 00:30:16,43.4910,7.2698,0.5,13.64,50,0.019008,-0.22983,011171700,1,20,11
61938,2012/03/16 01:00:34,43.4913,7.2647,0.5,13.56,50,0.018349,-0.226301,011171700,1,20,11
61938,2012/03/16 01:30:04,43.4918,7.2602,0.5,13.56,50,0.031411,-0.205091,011171700,1,20,11
61938,2012/03/16 02:00:13,43.4921,7.2558,0.5,13.56,50,0.01844,-0.196209,011171700,1,20,11
61938,2012/03/16 02:30:04,43.4927,7.2515,0.5,13.56,50,0.037251,-0.193676,011171700,3,20,11
61938,2012/03/16 03:00:29,43.4932,7.2475,0.5,13.56,50,0.030464,-0.176805,011171700,3,20,11
61938,2012/03/16 03:31:35,43.4938,7.2436,0.5,13.56,50,0.035754,-0.168596,011171700,1,20,11
61938,2012/03/16 04:00:06,43.4950,7.2389,0.5,13.56,50,0.077986,-0.221582,011171700,6,20,11
61938,2012/03/16 04:30:08,43.4950,7.2369,0.5,13.56,50,0,-0.089528,011171700,6,20,11
61938,2012/03/16 05:00:06,43.4956,7.2336,0.5,13.56,50,0.037106,-0.148049,011171700,4,17,10.8
61938,2012/03/16 05:30:04,43.4961,7.2310,0.5,13.56,50,0.030922,-0.116644,011171700,3,17,10.8
61938,2012/03/16 06:01:04,43.4965,7.2282,0.5,13.56,50,0.023913,-0.121428,011171700,3,17,10.9
61938,2012/03/16 06:30:04,43.4969,7.2260,0.5,13.56,50,0.025562,-0.101987,011171700,3,17,10.9
61938,2012/03/16 07:00:06,43.4971,7.2238,0.5,13.56,50,0.012341,-0.098477,011171700,1,20,10.9
61938,2012/03/16 07:30:07,43.4973,7.2218,0.5,13.56,50,0.012348,-0.089574,011171700,3,20,10.9
61938,2012/03/16 08:00:06,43.4974,7.2196,0.5,13.56,50,0.006181,-0.098641,011171700,3,20,10.9
61938,2012/03/16 08:30:18,43.4977,7.2173,0.5,13.56,50,0.01841,-0.102385,011171700,1,20,10.9
61938,2012/03/16 09:00:58,43.4980,7.2148,0.5,13.56,50,0.01813,-0.109594,011171700,1,17,10.9
61938,2012/03/16 09:30:05,43.4985,7.2115,0.5,13.56,50,0.031825,-0.152363,011171700,1,17,10.9
61938,2012/03/16 10:00:03,43.4987,7.2109,0.5,13.64,50,0.012369,-0.026917,011171700,1,19,10.9
61938,2012/03/16 10:30:03,43.4990,7.2089,0.5,13.88,50,0.018532,-0.089622,011171700,1,19,10.9
61938,2012/03/16 11:00:35,43.4994,7.2071,0.5,13.72,50,0.024278,-0.07925,011171700,1,20,10.9
61938,2012/03/16 11:30:03,43.5001,7.2053,0.5,13.8,50,0.044025,-0.082118,011171700,1,20,10.9
61938,2012/03/16 12:00:05,43.5005,7.2035,0.5,13.88,50,0.024683,-0.080568,011171700,5,17,10.9
61938,2012/03/16 12:30:03,43.5012,7.2018,0.5,13.88,50,0.043291,-0.076261,011171700,5,17,10.9
61938,2012/03/16 13:00:04,43.5015,7.2004,0.5,13.88,50,0.018522,-0.062698,011171700,6,17,10.9
61938,2012/03/16 13:30:27,43.5026,7.1982,0.5,13.88,50,0.067095,-0.097335,011171700,6,17,10.9
61938,2012/03/16 14:00:16,43.5034,7.1968,0.5,13.96,50,0.049724,-0.063117,011171700,1,17,10.9
61938,2012/03/16 14:31:22,43.5042,7.1955,0.5,13.96,50,0.047672,-0.056189,011171700,3,17,10.9
61938,2012/03/16 15:00:03,43.5051,7.1945,0.5,13.96,50,0.05815,-0.046863,011171700,4,14,10.9
61938,2012/03/16 15:30:03,43.5060,7.1935,0.5,13.96,50,0.055597,-0.044806,011171700,4,14,10.9
61938,2012/03/16 16:00:14,43.5069,7.1923,0.5,13.96,50,0.05526,-0.05344,011171700,1,14,10.9
61938,2012/03/16 16:30:04,43.5079,7.1922,0.5,13.96,50,0.06212,-0.004505,011171700,1,14,10.9
61938,2012/03/16 17:00:03,43.5091,7.1919,0.5,13.96,50,0.074171,-0.013449,011171700,1,17,10.9
61938,2012/03/16 17:30:03,43.5104,7.1914,0.5,13.96,50,0.080307,-0.022401,011171700,1,17,10.9
61938,2012/03/16 18:00:06,43.5118,7.1913,0.5,13.8,50,0.086341,-0.004473,011171700,3,14,10.9
61938,2012/03/16 18:30:15,43.5132,7.1915,0.5,13.72,50,0.086055,0.008916,011171700,3,14,10.9
61938,2012/03/16 19:00:04,43.5149,7.1914,0.5,13.88,50,0.105663,-0.004508,011171700,4,12,10.9
61938,2012/03/16 19:30:06,43.5172,7.1916,0.5,13.96,50,0.141925,0.00895,011171700,4,12,10.9
61938,2012/03/16 20:00:04,43.5199,7.1911,0.5,13.8,50,0.166978,-0.022423,011171700,4,11,10.9
61938,2012/03/16 20:30:52,43.5202,7.1955,0.5,13.72,50,0.018051,0.191979,011171700,1,11,10.9
61938,2012/03/16 21:00:19,43.5222,7.1974,0.5,13.64,50,0.125857,0.086699,011171700,1,12,10.8
61938,2012/03/16 21:30:03,43.5241,7.1995,0.5,13.72,50,0.118425,0.094908,011171700,3,12,10.8
61938,2012/03/16 22:00:10,43.5261,7.2021,0.5,13.72,50,0.123071,0.116006,011171700,3,12,10.9
61938,2012/03/16 22:30:15,43.5282,7.2046,0.5,13.72,50,0.129368,0.111664,011171700,1,12,10.9
61938,2012/03/16 23:00:13,43.5303,7.2071,0.5,13.72,50,0.129872,0.112095,011171700,1,12,10.8
61938,2012/03/16 23:30:03,43.5318,7.2101,0.5,13.72,50,0.09318,0.135111,011171700,1,12,10.8
61938,2012/03/17 00:00:26,43.5336,7.2134,0.5,13.72,50,0.109792,0.145928,011171700,1,11,10.9
61938,2012/03/17 00:30:19,43.5349,7.2166,0.5,13.64,50,0.080621,0.14387,011171700,1,11,10.9
61938,2012/03/17 01:00:34,37.6157,10.5376,0.5,13.64,50,,,014471799,1,14,10.9
61938,2012/03/17 01:30:09,43.5376,7.2226,0.5,13.64,50,,,011171799,1,14,10.9
61938,2012/03/17 02:00:04,43.5391,7.2255,0.5,13.64,50,0.092921,0.130228,011171700,1,14,10.9
61938,2012/03/17 02:31:04,43.5405,7.2283,0.5,13.72,50,0.083695,0.121341,011171700,4,14,10.9
61938,2012/03/17 03:00:05,43.5417,7.2312,0.5,13.72,50,0.076642,0.134261,011171700,1,17,10.9
61938,2012/03/17 03:30:04,43.5429,7.2343,0.5,13.72,50,0.074171,0.138891,011171700,1,17,10.9
61938,2012/03/17 04:00:03,43.5444,7.2379,0.5,13.72,50,0.092714,0.161289,011171700,1,17,10.9
61938,2012/03/17 04:30:26,43.5459,7.2410,0.5,13.64,50,0.091493,0.137056,011171700,1,17,10.9
61938,2012/03/17 05:00:15,43.5474,7.2446,0.5,13.64,50,0.093232,0.162182,011171700,1,19,10.9
61938,2012/03/17 05:30:09,43.5483,7.2473,0.5,13.56,50,0.055783,0.121295,011171700,1,19,10.9
61938,2012/03/17 06:02:16,43.5495,7.2507,0.5,13.56,50,0.069244,0.142198,011171700,1,22,10.9
61938,2012/03/17 06:30:17,43.5504,7.2535,0.5,13.48,50,0.059533,0.134239,011171700,4,22,10.9
61938,2012/03/17 07:00:24,43.5512,7.2563,0.5,13.48,50,0.049229,0.124877,011171700,4,22,10.9
61938,2012/03/17 07:31:35,43.5521,7.2596,0.5,13.48,50,0.053488,0.14214,011171700,1,22,10.9
61938,2012/03/17 08:00:06,43.5529,7.2622,0.5,13.48,50,0.051991,0.12246,011171700,1,28,10.9
61938,2012/03/17 08:30:13,43.5538,7.2651,0.5,13.48,50,0.055382,0.129331,011171700,1,28,10.9
61938,2012/03/17 09:00:00,43.5548,7.2613,0.5,13.48,50,0.063932,-0.169328,013371700,1,23,10.8
61938,2012/03/17 09:32:34,43.5552,7.2708,0.5,13.48,50,0.021055,0.389725,011171700,1,23,10.8
61938,2012/03/17 10:00:04,43.5559,7.2733,0.5,13.48,50,0.047174,0.122097,011171700,1,28,10.9
61938,2012/03/17 10:30:09,43.5566,7.2762,0.5,13.48,50,0.043123,0.129468,011171700,1,28,10.9
61938,2012/03/17 11:00:16,43.5575,7.2791,0.5,13.48,50,0.055382,0.129323,011171700,1,28,10.9
61938,2012/03/17 11:30:19,43.5581,7.2818,0.5,13.48,50,0.037003,0.12067,011171700,1,28,10.9
61938,2012/03/17 12:00:07,43.5585,7.2846,0.5,13.48,50,0.024876,0.126188,011171700,1,28,10.9
61938,2012/03/17 12:30:20,43.5583,7.2874,0.5,13.48,50,-0.012266,0.124448,011171700,1,28,10.9
61938,2012/03/17 13:01:05,43.5580,7.2902,0.5,13.48,50,-0.01808,0.12229,011171700,1,28,10.9
61938,2012/03/17 13:30:14,43.5579,7.2926,0.5,13.48,50,-0.006358,0.110574,011171700,1,28,10.9
61938,2012/03/17 14:03:04,43.5575,7.2954,0.5,13.48,50,-0.022578,0.114531,011171700,3,36,10.9
61938,2012/03/17 14:30:05,43.5567,7.2978,0.5,13.48,50,-0.054877,0.119307,011171700,3,36,10.9
61938,2012/03/17 15:00:35,43.5615,7.2812,0.5,13.48,50,0.291659,-0.730935,013371700,5,28,10.9
61938,2012/03/17 15:30:00,43.5555,7.2988,0.5,13.48,50,-0.379104,0.806002,011171700,5,28,10.9
61938,2012/03/17 16:03:34,43.5530,7.3079,0.5,13.48,50,-0.136923,0.362114,011171700,1,33,10.8
61938,2012/03/17 16:30:03,43.5514,7.3109,0.5,13.48,50,-0.111965,0.152149,011171700,1,33,10.8
61938,2012/03/17 17:00:25,43.5494,7.3146,0.5,13.48,50,-0.122058,0.163658,011171700,1,25,10.9
61938,2012/03/17 17:30:40,43.5469,7.3187,0.5,13.48,50,-0.153161,0.182057,011171700,3,25,10.9
61938,2012/03/17 18:01:58,43.5446,7.3230,0.5,13.48,50,-0.136181,0.18454,011171700,3,28,10.9
61938,2012/03/17 18:30:16,43.5419,7.3269,0.5,13.4,50,-0.176812,0.185124,011171700,3,28,10.9
61938,2012/03/17 19:00:15,43.5386,7.3313,0.5,13.4,50,-0.203971,0.197142,011171700,3,28,10.9
61938,2012/03/17 19:30:06,43.5349,7.3363,0.5,13.4,50,-0.229716,0.225039,011171700,1,28,10.9
61938,2012/03/17 20:00:06,43.5304,7.3425,0.5,13.4,50,-0.277987,0.277672,011171700,1,28,10.7
61938,2012/03/17 20:30:02,43.5267,7.3473,0.5,13.4,50,-0.229076,0.215465,011171700,1,28,10.7
61938,2012/03/17 21:00:38,43.5217,7.3530,0.5,13.4,50,-0.302818,0.250308,011171700,1,28,10.9
61938,2012/03/17 21:33:34,43.5161,7.3590,0.5,13.4,50,-0.315127,0.244836,011171700,1,28,10.9
61938,2012/03/17 22:00:02,43.5116,7.3638,0.5,13.4,50,-0.315099,0.243746,011171700,1,26,10.9
61938,2012/03/17 22:30:04,43.5064,7.3694,0.5,13.4,50,-0.320873,0.25062,011171700,1,26,10.9
61938,2012/03/17 23:00:02,43.5013,7.3746,0.5,13.32,50,-0.315403,0.233256,011171700,1,31,10.9
61938,2012/03/17 23:30:04,43.4959,7.3794,0.5,13.4,50,-0.333215,0.214854,011171700,1,31,10.9
61938,2012/03/18 00:00:15,43.4910,7.3848,0.5,13.32,50,-0.300859,0.24053,011171700,1,28,10.9
61938,2012/03/18 00:30:03,43.4859,7.3897,0.5,13.32,50,-0.317167,0.221085,011171700,1,28,10.9
61938,2012/03/18 01:01:20,43.4804,7.3951,0.5,13.32,50,-0.325824,0.232112,011171700,1,25,10.9
61938,2012/03/18 01:30:52,43.4756,7.3996,0.5,13.32,50,-0.301205,0.204906,011171700,1,25,10.9
61938,2012/03/18 02:00:15,43.4709,7.4036,0.5,13.32,50,-0.296436,0.183083,011171700,1,28,10.9
61938,2012/03/18 02:30:13,43.4661,7.4076,0.5,13.32,50,-0.29685,0.179533,011171700,1,28,10.9
61938,2012/03/18 03:00:16,43.4616,7.4113,0.5,13.32,50,-0.277525,0.16562,011171700,4,23,10.9
61938,2012/03/18 03:32:04,43.4567,7.4150,0.5,13.32,50,-0.285563,0.156518,011171700,4,23,10.9
61938,2012/03/18 04:00:03,43.4524,7.4181,0.5,13.32,50,-0.284776,0.149034,011171700,3,22,10.9
61938,2012/03/18 04:30:05,43.4478,7.4209,0.5,13.32,50,-0.283849,0.125432,011171700,3,22,10.9
61938,2012/03/18 05:00:03,43.4431,7.4235,0.5,13.32,50,-0.290665,0.116741,011171700,3,28,10.9
61938,2012/03/18 05:31:12,43.4379,7.4256,0.5,13.32,50,-0.309371,0.090716,011171700,4,28,10.9
61938,2012/03/18 06:00:03,43.4333,7.4268,0.5,13.32,50,-0.295492,0.055975,011171700,4,22,10.9
61938,2012/03/18 06:30:08,43.4286,7.4281,0.5,13.32,50,-0.289538,0.058158,011171700,4,22,10.9
61938,2012/03/18 07:00:03,43.4235,7.4287,0.5,13.32,50,-0.31593,0.026994,011171700,3,25,10.9
61938,2012/03/18 07:30:02,43.4183,7.4286,0.5,13.32,50,-0.321408,-0.004489,011171700,1,25,10.9
61938,2012/03/18 08:00:14,43.4134,7.4280,0.5,13.4,50,-0.300693,-0.026745,011171700,1,25,10.9
61938,2012/03/18 08:30:13,43.4085,7.4264,0.5,13.4,50,-0.302866,-0.071842,011171700,1,25,10.9
61938,2012/03/18 09:00:05,43.4041,7.4247,0.5,13.56,50,-0.273023,-0.076636,011171700,1,23,10.9
61938,2012/03/18 09:30:03,43.3995,7.4228,0.5,13.72,50,-0.284481,-0.085372,011171700,1,23,10.9
61938,2012/03/18 10:00:09,43.3952,7.4198,0.5,13.96,50,-0.26475,-0.134211,011171700,1,25,10.9
61938,2012/03/18 10:30:09,43.3914,7.4162,0.5,13.96,50,-0.234745,-0.161601,011171700,1,25,10.9
61938,2012/03/18 11:00:10,43.3489,7.3222,0.5,13.48,50,-2.62398,-4.21884,014473700,1,23,10.9
61938,2012/03/18 11:01:00,43.3877,7.4125,0.5,13.8,50,-0.22227,-0.161523,011171700,1,23,10.9
61938,2012/03/18 11:30:03,43.3845,7.4089,0.5,13.72,50,-0.204144,-0.166905,011171700,1,23,10.9
61938,2012/03/18 12:00:34,43.3812,7.4045,0.5,13.56,50,-0.200406,-0.194201,011171700,1,22,10.9
61938,2012/03/18 12:30:03,43.3781,7.4000,0.5,13.56,50,-0.194858,-0.205587,011171700,1,22,10.9
61938,2012/03/18 13:00:03,43.3750,7.3954,0.5,13.56,50,-0.191502,-0.206547,011171700,1,22,10.9
61938,2012/03/18 13:30:13,43.3723,7.3904,0.5,13.56,50,-0.165871,-0.223278,011171700,4,22,10.9
61938,2012/03/18 14:01:15,43.3696,7.3851,0.5,13.56,50,-0.161239,-0.230075,011171700,4,22,10.9
61938,2012/03/18 14:30:12,43.3675,7.3787,0.5,13.56,50,-0.134433,-0.297832,011171700,1,22,10.9
61938,2012/03/18 15:00:25,43.3648,7.3740,0.5,13.56,50,-0.165596,-0.20956,011171700,1,22,10.9
61938,2012/03/18 15:30:21,43.3622,7.3682,0.5,13.48,50,-0.160973,-0.261065,011171700,3,22,10.9
61938,2012/03/18 16:00:38,43.3599,7.3620,0.5,13.48,50,-0.140753,-0.275855,011171700,3,20,10.9
61938,2012/03/18 16:31:23,43.3580,7.3557,0.5,13.48,50,-0.11451,-0.27606,011171700,4,20,10.9
61938,2012/03/18 17:00:03,43.3560,7.3498,0.5,13.48,50,-0.129296,-0.27733,011171700,4,20,10.9
61938,2012/03/18 17:30:35,43.3542,7.3432,0.5,13.48,50,-0.109253,-0.291276,011171700,1,20,10.9
61938,2012/03/18 18:00:16,43.3525,7.3364,0.5,13.48,50,-0.106138,-0.308705,011171700,3,22,10.9